{"data":{"norad_id":31119,"epoch":"2026-09-19T08:39:00.897120Z","epoch_age_seconds":116777,"freshness":"FRESH","line1":"1 31119U 07012C   26262.36042705  .00000349  00000+0  71847-4 0  9996","line2":"2 31119  98.3901 238.4796 0054283 261.3123  98.1928 14.66203852 36234","mean_motion":14.66203852,"eccentricity":0.0054283,"inclination_deg":98.3901,"raan_deg":238.4796,"arg_perigee_deg":261.3123,"mean_anomaly_deg":98.1928,"bstar":7.1847e-5,"rev_number":3623,"period_min":98.212809769647,"perigee_km":634.93613669396,"apogee_km":711.48982288453,"semimajor_km":7051.3499797892,"source":"CELESTRAK","updated_at":"2026-09-20T09:00:13.651733Z"}}